Date String (YYYY-MM-DD hh:mm:ss) UTC,Instrument flags,absolute air pressure of the measurement (hPa),sample flow rate (lpm),inlet stack bypass flow (lpm),air temperature of the measurement (°C),ambient temperature measured by the external sensor (°C),aerosol sample conditioner tube jacket temperature (°C),OPC LED temperature (°C),internal box temperature (°C),relative humidity of the measurement (%),span deviation,mass concentration of particles derived from Lorenz-Mie calculation of OPC scattering (μg/m³),mass concentration of particles derived from Lorenz-Mie calculation of OPC scattering (μg/m³),mass concentration of particles derived from Lorenz-Mie calculation of OPC scattering (μg/m³)
DateTimeUTC,F1_M11,P_M11,Q1_M11,Q2_M11,T1_M11,T2_M11,T3_M11,T4_M11,T5_M11,U1_M11,ZSPAN_M11,X0_M11,X2_M11,X1_M11
2023-10-09 14:00:00,SystemResetWarning,0830.1,5.00,000.00,028.4,026.9,000.0,036.8,030.0,12.8,0000.0,0007.98,0003.30,0002.68
2023-10-09 14:01:00,SystemResetWarning,0830.1,5.00,000.00,028.4,026.9,000.0,036.8,030.1,12.9,0000.0,0007.87,0003.30,0002.68
2023-10-09 14:02:00,SystemResetWarning,0830.1,5.00,000.00,028.4,026.9,000.0,036.8,030.1,12.9,0000.0,0007.94,0003.30,0002.68
2023-10-09 14:03:00,SystemResetWarning,0830.1,5.00,000.00,028.4,026.9,000.0,036.8,030.1,12.9,0000.0,0007.98,0003.32,0002.71
2023-10-09 14:04:00,SystemResetWarning,0830.1,5.00,000.00,028.4,026.9,000.0,036.8,030.1,12.8,0000.0,0008.23,0003.35,0002.74
2023-10-09 14:05:00,SystemResetWarning,0830.0,5.00,000.00,028.4,027.0,000.0,036.8,030.1,12.7,0000.0,0008.92,0003.36,0002.76
2023-10-09 14:06:00,SystemResetWarning,0830.0,5.00,000.00,028.4,027.0,000.0,036.8,030.1,12.8,0000.0,0008.62,0003.37,0002.79
2023-10-09 14:07:00,SystemResetWarning,0830.0,5.00,000.00,028.4,027.0,000.0,036.8,030.1,12.8,0000.0,0008.62,0003.38,0002.81
2023-10-09 14:08:00,SystemResetWarning,0830.0,5.00,000.00,028.4,027.0,000.0,036.8,030.1,12.8,0000.0,0007.99,0003.41,0002.84
2023-10-09 14:09:00,SystemResetWarning,0830.0,4.99,000.00,028.5,027.0,000.0,036.9,030.1,12.8,0000.0,0008.04,0003.43,0002.89
2023-10-09 14:10:00,SystemResetWarning,0830.0,5.00,000.00,028.5,027.0,000.0,036.9,030.1,12.8,0000.0,0007.97,0003.42,0002.93
2023-10-09 14:11:00,SystemResetWarning,0830.0,5.00,000.00,028.5,027.0,000.0,036.9,030.1,12.9,0000.0,0007.92,0003.42,0002.95
2023-10-09 14:12:00,SystemResetWarning,0830.0,5.00,000.00,028.5,027.0,000.0,036.9,030.1,12.9,0000.0,0008.45,0003.41,0002.96
2023-10-09 14:13:00,SystemResetWarning,0830.0,4.99,000.00,028.5,027.0,000.0,036.9,030.1,13.0,0000.0,0008.43,0003.42,0002.97
2023-10-09 14:14:00,SystemResetWarning,0830.1,5.00,000.00,028.5,027.0,000.0,036.9,030.1,13.0,0000.0,0008.62,0003.44,0002.98
2023-10-09 14:15:00,SystemResetWarning,0830.0,5.00,000.00,028.5,027.0,000.0,036.9,030.1,12.9,0000.0,0008.67,0003.42,0002.96
2023-10-09 14:16:00,SystemResetWarning,0830.0,5.00,000.00,028.5,027.1,000.0,036.9,030.2,12.9,0000.0,0007.98,0003.44,0002.96
2023-10-09 14:17:00,SystemResetWarning,0830.0,5.00,000.00,028.5,027.1,000.0,036.9,030.1,12.9,0000.0,0007.96,0003.44,0002.95
2023-10-09 14:18:00,SystemResetWarning,0830.0,5.00,000.00,028.5,027.1,000.0,036.9,030.2,13.0,0000.0,0007.83,0003.44,0002.92
2023-10-09 14:19:00,SystemResetWarning,0830.1,5.00,000.00,028.5,027.1,000.0,036.9,030.2,13.0,0000.0,0007.67,0003.40,0002.90
2023-10-09 14:20:00,SystemResetWarning,0830.0,5.00,000.00,028.5,027.1,000.0,036.9,030.2,12.8,0000.0,0007.74,0003.39,0002.87
2023-10-09 14:21:00,SystemResetWarning,0830.0,5.00,000.00,028.5,027.1,000.0,036.9,030.2,12.9,0000.0,0007.81,0003.39,0002.84
2023-10-09 14:22:00,SystemResetWarning,0830.1,5.00,000.00,028.5,027.1,000.0,036.9,030.2,12.9,0000.0,0007.86,0003.39,0002.83
2023-10-09 14:23:00,SystemResetWarning,0830.0,5.00,000.00,028.5,027.1,000.0,036.9,030.2,12.9,0000.0,0007.55,0003.39,0002.82
2023-10-09 14:24:00,SystemResetWarning,0830.0,5.00,000.00,028.6,027.1,000.0,036.9,030.2,13.0,0000.0,0007.58,0003.41,0002.80
2023-10-09 14:25:00,SystemResetWarning,0830.0,5.00,000.00,028.6,027.1,000.0,037.0,030.2,13.0,0000.0,0007.57,0003.37,0002.78
2023-10-09 14:26:00,SystemResetWarning,0830.0,5.01,000.00,028.6,027.1,000.0,037.0,030.2,13.0,0000.0,0007.50,0003.37,0002.79
2023-10-09 14:27:00,SystemResetWarning,0830.0,5.00,000.00,028.6,027.1,000.0,037.0,030.2,13.1,0000.0,0007.24,0003.38,0002.78
2023-10-09 14:28:00,SystemResetWarning,0830.0,5.00,000.00,028.6,027.1,000.0,037.0,030.2,13.1,0000.0,0007.10,0003.35,0002.79
2023-10-09 14:29:00,SystemResetWarning,0830.0,5.00,000.00,028.6,027.1,000.0,036.9,030.2,13.1,0000.0,0006.94,0003.33,0002.77
2023-10-09 14:30:00,SystemResetWarning,0830.0,5.00,000.00,028.6,027.1,000.0,037.0,030.2,13.0,0000.0,0007.04,0003.33,0002.76
2023-10-09 14:31:00,SystemResetWarning,0830.0,5.00,000.00,028.6,027.1,000.0,037.0,030.2,12.9,0000.0,0007.06,0003.32,0002.76
2023-10-09 14:32:00,SystemResetWarning,0830.0,5.00,000.00,028.6,027.1,000.0,037.0,030.3,13.0,0000.0,0007.66,0003.31,0002.75
2023-10-09 14:33:00,SystemResetWarning,0830.0,5.00,000.00,028.6,027.2,000.0,037.0,030.3,13.0,0000.0,0007.62,0003.31,0002.76
2023-10-09 14:34:00,SystemResetWarning,0830.0,5.00,000.00,028.6,027.2,000.0,037.0,030.3,13.0,0000.0,0007.28,0003.30,0002.74
2023-10-09 14:35:00,SystemResetWarning,0830.0,5.00,000.00,028.6,027.2,000.0,037.0,030.3,12.9,0000.0,0007.35,0003.26,0002.73
2023-10-09 14:36:00,SystemResetWarning,0830.0,4.99,000.00,028.6,027.2,000.0,037.0,030.3,12.9,0000.0,0007.48,0003.26,0002.72
2023-10-09 14:37:00,SystemResetWarning,0830.0,5.00,000.00,028.6,027.2,000.0,037.0,030.3,13.0,0000.0,0007.42,0003.26,0002.69
2023-10-09 14:38:00,SystemResetWarning,0830.0,5.00,000.00,028.6,027.2,000.0,037.0,030.3,13.2,0000.0,0007.31,0003.21,0002.67
2023-10-09 14:39:00,SystemResetWarning,0830.0,5.00,000.00,028.6,027.2,000.0,037.0,030.3,13.1,0000.0,0007.58,0003.21,0002.64
2023-10-09 14:40:00,SystemResetWarning,0830.0,5.00,000.00,028.7,027.2,000.0,037.0,030.3,13.3,0000.0,0007.65,0003.22,0002.63
2023-10-09 14:41:00,SystemResetWarning,0830.0,5.00,000.00,028.7,027.3,000.0,037.0,030.3,13.2,0000.0,0007.59,0003.20,0002.60
2023-10-09 14:42:00,SystemResetWarning,0830.0,5.00,000.00,028.7,027.3,000.0,037.1,030.3,12.9,0000.0,0007.54,0003.22,0002.59
2023-10-09 14:43:00,SystemResetWarning,0830.0,5.00,000.00,028.7,027.3,000.0,037.1,030.3,12.9,0000.0,0006.94,0003.22,0002.58
2023-10-09 14:44:00,SystemResetWarning,0830.0,5.00,000.00,028.7,027.3,000.0,037.1,030.4,12.8,0000.0,0007.70,0003.22,0002.54
2023-10-09 14:45:00,SystemResetWarning,0830.0,5.00,000.00,028.7,027.3,000.0,037.1,030.4,12.8,0000.0,0008.44,0003.21,0002.53
2023-10-09 14:46:00,SystemResetWarning,0830.0,5.00,000.00,028.7,027.3,000.0,037.1,030.4,13.0,0000.0,0008.40,0003.20,0002.51
2023-10-09 14:47:00,SystemResetWarning,0830.0,5.00,000.00,028.7,027.3,000.0,037.1,030.4,13.2,0000.0,0008.41,0003.22,0002.51
2023-10-09 14:48:00,SystemResetWarning,0830.0,5.00,000.00,028.7,027.3,000.0,037.1,030.4,13.4,0000.0,0008.17,0003.21,0002.53
2023-10-09 14:49:00,SystemResetWarning,0830.0,5.00,000.00,028.7,027.4,000.0,037.1,030.4,13.3,0000.0,0008.33,0003.21,0002.54
2023-10-09 14:50:00,SystemResetWarning,0830.0,5.00,000.00,028.8,027.4,000.0,037.1,030.4,13.5,0000.0,0008.20,0003.19,0002.54
2023-10-09 14:51:00,SystemResetWarning,0830.0,5.00,000.00,028.8,027.4,000.0,037.1,030.4,13.4,0000.0,0008.11,0003.18,0002.53
2023-10-09 14:52:00,SystemResetWarning,0830.0,5.00,000.00,028.8,027.4,000.0,037.1,030.4,13.2,0000.0,0008.03,0003.18,0002.55
2023-10-09 14:53:00,SystemResetWarning,0830.0,5.00,000.00,028.8,027.4,000.0,037.1,030.4,13.3,0000.0,0008.00,0003.16,0002.56
2023-10-09 14:54:00,SystemResetWarning,0830.0,5.00,000.00,028.8,027.4,000.0,037.1,030.4,13.1,0000.0,0008.99,0003.16,0002.57
2023-10-09 14:55:00,SystemResetWarning,0830.0,5.00,000.00,028.8,027.4,000.0,037.1,030.4,12.9,0000.0,0008.55,0003.17,0002.57
2023-10-09 14:56:00,SystemResetWarning,0830.0,5.00,000.00,028.8,027.4,000.0,037.1,030.4,13.0,0000.0,0007.87,0003.20,0002.58
2023-10-09 14:57:00,SystemResetWarning,0830.0,5.00,000.00,028.8,027.4,000.0,037.1,030.4,13.1,0000.0,0007.81,0003.22,0002.58
2023-10-09 14:58:00,SystemResetWarning,0830.0,5.00,000.00,028.8,027.4,000.0,037.1,030.4,13.2,0000.0,0007.62,0003.22,0002.58
2023-10-09 14:59:00,SystemResetWarning,0830.0,5.00,000.00,028.8,027.4,000.0,037.1,030.5,13.5,0000.0,0007.84,0003.22,0002.55
